Regional Weather Roundup
Issued by NWS Newport/Morehead, NC

Current Version | Previous Version | Graphics & Text | Print | Product List | Glossary Off
Versions: 1 2 3 4 5 6 7 8 9 10 11 12 13 14 15 16 17 18 19 20 21 22 23 24 25 26 27 28 29 30 31 32 33 34 35 36 37 38 39 40 41 42 43 44 45 46 47 48 49 50
000 ASUS42 KMHX 290910 RWRMHX WEATHER ROUNDUP FOR EASTERN NORTH CAROLINA NATIONAL WEATHER SERVICE NEWPORT/MOREHEAD CITY NC 400 AM EST MON DEC 29 2014 NOTE: "FAIR" INDICATES FEW OR NO CLOUDS BELOW 12,000 FEET WITH NO SIGNIFICANT WEATHER AND/OR OBSTRUCTIONS TO VISIBILITY NCZ015>017-031-032-045>047-102-103-291000- NORTH COAST CITY SKY/WX TMP DP RH WIND PRES REMARKS EDENTON CLOUDY 55 55 100 NW3 30.06S ELIZABETH CITY CLOUDY 59 55 87 N5 30.06S FOG KITTY HAWK LGT RAIN 56 56 100 CALM 30.04S VSB 1/2 MANTEO CLOUDY 57 57 100 CALM 30.05S $$ NCZ045>047-081-094-103-104-291000- CENTRAL COAST CITY SKY/WX TMP DP RH WIND PRES REMARKS FRISCO CLOUDY 57 57 100 N3 30.04F FOG SWANQUARTER N/A 57 N/A N/A NE2 30.00F $$ NCZ095-097-098-100-101-291000- SOUTHERN COAST CITY SKY/WX TMP DP RH WIND PRES REMARKS BEAUFORT CLOUDY 59 58 96 E3 30.02F CEDAR ISLAND N/A 57 N/A N/A NW1 30.06F JACKSONVILLE CLOUDY 59 57 93 CALM 30.02F PINEY ISLAND CLOUDY 60 56 86 CALM 30.03F WILMINGTON CLOUDY 61 60 97 CALM 30.02F $$ NCZ011>013-027>030-043-044-078>080-089-090>093-098-291000- COASTAL PLAIN CITY SKY/WX TMP DP RH WIND PRES REMARKS AHOSKIE LGT RAIN 54 52 95 N6 30.06F CLINTON CLOUDY 59 59 100 CALM 30.03S FOG ELIZABETHTOWN CLOUDY 60 60 100 CALM 30.02F GOLDSBORO CLOUDY 57 57 100 CALM 30.02S FOG GREENVILLE FOG 55 54 94 CALM 30.06F VSB 3/4 HAVELOCK CLOUDY 59 57 93 CALM 30.04F KENANSVILLE FOG 58 58 99 CALM 30.04S VSB 1 KINSTON FOG 58 58 100 N3 30.04F VSB 3/4 NEW BERN CLOUDY 61 58 90 CALM 30.04F FOG RICHLANDS CLOUDY 59 57 94 CALM 30.03F VSB 3/4 ROCKY MOUNT CLOUDY 55 54 96 NE5 30.05S FOG WASHINGTON N/A 57 57 98 CALM 30.05F WHITEVILLE CLOUDY 60 59 95 CALM 30.02S $$ AMZ130-135-150-152-154-156-158-170-250-252-270-ANZ085-086-088-633-658-670-291000- MARINE OBSERVATIONS STATION/POSITION TIME TEMP WIND PRES WAVE SWELL AIR SEA DIR/SP/G HT/PER HT/PER (UTC) (F) (DEG/KT/KT) (MB) (FT/S) (FT/S) CHESAPEAKE LIGHT 0800 50 40/ 13/ 14 1018.3 64 E VA BEACH 0900 53 53 20/ 8/ 8 1016.8 2/13 2/13 DUCK 0900 57 50 310/ 4/ 4 1016.7 2 E DUCK 0900 49 N/A 2/13 2/13 10 NE DUCK 0900 50 N/A 2/13 2/13 OREGON INLET 0900 56 53 CALM / 1 1017.3 13E OREGON INLT 0900 64 N/A 2/13 2/13 HATTERAS CG 0900 57 56 320/ 6/ 6 1017.6 DIAMOND BUOY 0900 63 1017.3 3/13 17 S OCRACOKE NOT AVBL CAPE LOOKOUT 0800 58 330/ 4/ 5 1017.4 BEAUFORT LAB 0900 58 56 30/ 2/ 3 1015.7 30 SE NEW RIVER 0900 59 60 270/ 4/ 4 1017.4 3/14 2/14 5 SE WRIGHTSVLE NOT AVBL 225 S CAPE HAT 0848 74 74 220/ 14/ 17 1019.3 4/13 3/13 41 SE CHARLESTON 0900 72 73 220/ 10/ 14 1016.2 3/13 2/13 $$

USA.gov is the U.S. government's official web portal to all federal, state and local government web resources and services.